Погода в Петровке

Украина / Одесская область     47°59′09″N   29°15′57″E
темп.,
°C
ветер,
м/с
пор.,
м/с
влажн.,
%
обл.,
%
осадки,
мм/ч
давл.,
гПа
погр.,
м
28 ноября, вс
вс2823:00+7юз22755 0.0 100411
02:00+6ююз11810 0.0 100410
05:00+6ююв22813 0.0 100412
08:00+5юв368397 0.0 100498
11:00+10ююв5106447 0.0 1003358
14:00+12ююв6117488 0.0 1001669
17:00+12ю5108021 0.0 1000415
20:00+9ююв5129525 0.0 1000323
29 ноября, пн
пн2923:00+8юв41198100 0.0 999290
02:00+8ююв4119096 0.0 998262
05:00+8юв5129016 0.0 995239
08:00+8ююв61294100 0.0 994442
11:00+10ююв61288100 0.0 991558
14:00+12ююз51168100 0.0 988726
17:00+9з81274100 0.0 987624
20:00+3зсз11178393 3.7 993824
30 ноября, вт
вт3023:00+3зсз91574100 0.0 997860
02:00+3з7137012 0.0 1000882
05:00+1з7147795 0.0 1002700
08:00+1з61371100 0.0 1004636
11:00+2зсз8136181 0.0 1004812
14:00+3сз71160100 0.0 10031042
17:00+3сз81159100 0.0 10041264
20:00+1зсз613725 0.0 1005755
1 декабря, ср
ср123:00−1з410741 0.0 1005405
02:00−1юз51376100 0.0 1004451
05:00+1юз71455100 0.0 1003545
08:00+2зюз7135592 0.0 1003807
11:00+4з71354100 0.0 10041316
14:00+4зсз7116546 0.1 10051245
17:00+3зсз497136 0.0 1007380
20:00+2юз357999 0.0 1007114
2 декабря, чт
чт223:00+4ююз5116958 0.0 1007325
02:00+3ююз4117389 0.0 1006221
05:00+2ююз410775 0.0 1006166
08:00+2ююз498185 0.0 1006151
11:00+7юз511586 0.0 1006485
14:00+9юз58505 0.0 1005605
17:00+7ююз48616 0.0 1006125
20:00+5ю411643 0.0 1005195